Regional Weather Roundup
Issued by NWS

Home | Current Version | Previous Version | Text Only | Print | Product List | Glossary On
Versions: 1 2 3 4 5 6 7 8 9 10 11 12 13 14 15 16 17 18 19 20 21 22 23 24 25 26
000
ASUS42 KTBW 241416
RWRFL
FLORIDA REGIONAL WEATHER ROUNDUP
NATIONAL WEATHER SERVICE TAMPA BAY RUSKIN FL
1000 AM EDT TUE APR 24 2018

NOTE: "FAIR" INDICATES FEW OR NO CLOUDS BELOW 12,000 FEET WITH NO
SIGNIFICANT WEATHER AND/OR OBSTRUCTIONS TO VISIBILITY.

FLZ001>010-012>015-112-114-115-241500-
PANHANDLE FLORIDA

CITY           SKY/WX    TMP DP  RH WIND       PRES   REMARKS
PENSACOLA      FAIR      66  54  65 W7        30.00R
PENSACOLA NAS  FAIR      66  54  65 W7        30.00R
MILTON NAS     FAIR      64  57  78 NW10      30.00R
CRESTVIEW      FAIR      64  53  67 VRB3      30.01R
DUKE FIELD     MOSUNNY   63  53  69 W9        29.99S
VALPARAISO     MOSUNNY   65  54  68 NW10      29.98S
MARY ESTHER    MOSUNNY   66  55  69 NW6       29.99R
TRI COUNTY     FAIR      65  57  75 VRB3      29.99S
PANAMA CITY    FAIR      65  53  65 MISG      29.98S
TYNDALL AFB    FAIR      66  53  63 N10       29.99F
APALACHICOLA   FAIR      67  57  70 NW12      29.99R

STATION/POSITION SKY/WX   TEMP    WIND        PRES    WAVE   SWELL
                          AIR SEA DIR/SP/G            HT/PER HT/PER
                          (F)     (DEG/KT/KT) (MB)    (FT/S) (FT/S)
30.1N   87.6W              65     290/ 12/ 16 1016.4
29.2N   88.2W                 72  290/ 10/ 12 1016.8R   2/ 5   2/ 5
28.8N   86.0W              69 74  290/ 14/ 16 1015.5R   4/ 6   2/ 9
PANAMA CITY BEAC           62 69  290/  9/ 11 1016.0F
TOWER C          NOT AVBL

$$
FLZ011-016>038-118-127-128-134-139-239-241500-
NORTH FLORIDA

CITY           SKY/WX    TMP DP  RH WIND       PRES   REMARKS
MARIANNA       FAIR      65  54  67 W9        29.98R
TALLAHASSEE    FAIR      66  53  63 W10       29.98R
PERRY          FAIR      68  56  66 W6        29.99S
LIVE OAK       SUNNY     66  55  68 SW6       29.98S
CROSS CITY     FAIR      69  60  73 W6        29.99R
LAKE CITY      FAIR      66  55  68 SW5       29.97S
GAINESVILLE    FAIR      70  58  65 SW7       30.01R
WILLISTON        N/A     72  63  73 W10G17    29.99S
PALATKA        FAIR      70  61  73 W13       29.99R
MAYPORT NAS    FAIR      70  61  73 W9G17     29.95R
JACKSONVILLE   FAIR      68  60  75 W8        29.95S
JAX NAS        FAIR      63  58  83 W13       29.97R
JAX CECIL      SUNNY     68  64  88 W9        29.97R
FERNANDINA BEA FAIR      69  59  72 W13       29.93S
ST AUGUSTINE   FAIR      71  61  70 W13G21    29.97S
PALM COAST     MOSUNNY   70  63  78 W14       29.97S

STATION/POSITION SKY/WX   TEMP    WIND        PRES    WAVE   SWELL
                          AIR SEA DIR/SP/G            HT/PER HT/PER
                          (F)     (DEG/KT/KT) (MB)    (FT/S) (FT/S)
SHELL POINT      NOT AVBL
KEATON BEACH     NOT AVBL
CEDAR KEY                  70     290/  7/ 11 1016.0R
FERNANDINA                 67 69  250/  8/ 11 1015.0R
30.7N   81.3W                 67                N/A     5/ 9   2/11
MAYPORT                    67 68  270/ 14/ 18 1014.3R
31.4N   80.9W              64 65  230/ 14/ 16 1012.9S   5/ 9   3/ 9
ST AUGUSTINE               70 68  260/  9/ 11 1015.0R

$$
FLZ040-043>046-052-053-057-058-063-144-241500-
INTERIOR CENTRAL FLORIDA

CITY           SKY/WX    TMP DP  RH WIND       PRES   REMARKS
OCALA          FAIR      71  60  68 W8G16     30.00R
LEESBURG       FAIR      71  64  78 W12       30.00R
SANFORD        FAIR      74  65  73 W13       29.97S
ORLANDO EXEC   PTSUNNY   73  66  78 W10       29.98S
ORLANDO INTL   FAIR      76  66  71 W10       29.98S
KISSIMMEE      FAIR      76  67  73 NW10      29.99S
WINTER HAVEN   FAIR      74  66  76 W8        30.00S
LAKELAND       PTSUNNY   73  64  73 NW7       30.00R
BARTOW         PTSUNNY   73  66  78 NW9       29.99S
SEBRING        PTSUNNY   79  70  73 W6        29.99S
OKEECHOBEE     CLOUDY    77  72  83 SW12      29.98S

$$
FLZ041-047-054-059-064-141-147-241500-
EAST CENTRAL FLORIDA

CITY           SKY/WX    TMP DP  RH WIND       PRES   REMARKS
ORMOND BEACH   PTSUNNY   70  64  83 W9        29.97S
DAYTONA BEACH  PTSUNNY   72  67  84 W13       29.97S
DELAND         CLOUDY    70  64  83 NW10      29.98S
NEW SMYRNA BEA PTSUNNY   73  66  78 W10       29.98S
JFK SPACE CTR  FAIR      75  71  87 W8        29.97R
TITUSVILLE     MOSUNNY   79  68  69 NW6       29.98R
CAPE CANAVERAL PTSUNNY   75  70  83 W6        29.97R
PATRICK AFB    FAIR      77  73  88 W6        29.97R
MELBOURNE      CLOUDY    79  72  79 W9        29.97R
VERO BEACH     PTSUNNY   77  73  87 SW9       29.98F
FT PIERCE      FAIR      78  75  90 W9        29.98S
STUART         PTSUNNY   79  73  83 SW6       30.00S FOG

STATION/POSITION SKY/WX   TEMP    WIND        PRES    WAVE   SWELL
                          AIR SEA DIR/SP/G            HT/PER HT/PER
                          (F)     (DEG/KT/KT) (MB)    (FT/S) (FT/S)
28.5N   80.2W              74 74  260/  6/ 10 1015.3R   5/ 8   5/ 8
28.9N   78.5W              75 74  210/  2/  6 1015.4R   9/ 8   8/ 8
TRIDENT PIER               75 76  240/  6/ 11 1016.5R
28.4N   80.5W                 76                N/A     3/ 8
27.5N   80.2W                 75                N/A     3/ 8

$$
FLZ050-056-061-142-242-148-248-149-249-151-251-155-255-
160-260-241500-
WEST CENTRAL FLORIDA

CITY           SKY/WX    TMP DP  RH WIND       PRES   REMARKS
CRYSTAL RIVER  FAIR      72  59  64 W9        30.00S
INVERNESS      FAIR      72  63  73 W5        30.01R
BROOKSVILLE    FAIR      72  60  66 NW12      30.01R
CLEARWATER AIR PTSUNNY   72  61  68 N8        30.00S
ST PETE CLEARW FAIR      76  64  66 NW8       30.00R
TAMPA INTL     FAIR      75  64  68 W8        30.00S
TAMPA EXEC     PTSUNNY   73  66  78 NW6       30.00S
PLANT CITY     FAIR      77  66  69 W9        30.02R
MACDILL AFB    FAIR      76  66  70 NW9       30.00R
PETER O KNIGHT PTSUNNY   73  64  73 W6        30.00S
ST PETERSBURG  FAIR      74  65  73 NW7       29.98S
SARASOTA       FAIR      75  67  76 NW9       29.98S
VENICE         PTSUNNY   77  70  78 NW9       30.00S

STATION/POSITION SKY/WX   TEMP    WIND        PRES    WAVE   SWELL
                          AIR SEA DIR/SP/G            HT/PER HT/PER
                          (F)     (DEG/KT/KT) (MB)    (FT/S) (FT/S)
27.3N   84.2W                 74                N/A     3/ 6
CLEARWATER BEACH              76  300/ 11/ 15 1016.3R
MIDDLE TAMPA BAY           72     320/ 11/ 12 1015.8R
VENICE           NOT AVBL

$$
FLZ066-069-070-075>078-162-262-165-265-241500-
SOUTHWEST FLORIDA AND KEYS

CITY           SKY/WX    TMP DP  RH WIND       PRES   REMARKS
PUNTA GORDA    FAIR      79  69  71 W5        30.00S
FT MYERS       CLOUDY    78  74  87 W6        29.98S
SOUTHWEST INTL PTSUNNY   81  72  74 W17       29.99R
NAPLES         FAIR      80  75  84 SW9       29.99S
MARCO ISLAND   PTSUNNY   81  73  76 SW9       30.01S
IMMOKALEE      FAIR      84  72  65 SW7G13    30.00S
MARATHON       FAIR      84  73  69 S7        30.01R
KEY WEST NAS   FAIR      81  72  74 SW7       30.01S
KEY WEST INTL  FAIR      79  72  79 SW6       30.02R

STATION/POSITION SKY/WX   TEMP    WIND        PRES    WAVE   SWELL
                          AIR SEA DIR/SP/G            HT/PER HT/PER
                          (F)     (DEG/KT/KT) (MB)    (FT/S) (FT/S)
NAPLES                     80 80              1015.5S
26.0N   85.6W              75 79  330/ 10/ 12 1016.3
DRY TORTUGAS               77     230/  5/  5 1016.5R
SAND KEY                   78                 1016.4R
SOMBRERO KEY               78      CALM  /  6 1015.7R
MOLASSES REEF              78 78  240/  8/  9 1016.6S

$$
FLZ067-068-071>074-168-172>174-241500-
SOUTHEAST FLORIDA

CITY           SKY/WX    TMP DP  RH WIND       PRES   REMARKS
W PALM BEACH   PTSUNNY   79  73  82 SW9       30.00R
BOCA RATON     MOSUNNY   82  72  69 W13       30.00S
FT LAUDER-EXEC FAIR      83  73  72 SW9       30.00R
FT LAUDERDALE  FAIR      80  74  81 SW8       29.99S
POMPANO BEACH  FAIR      83  74  74 SW8       30.00S
PEMBROKE PINES FAIR      83  72  69 SW9       30.01S
OPA LOCKA      FAIR      82  72  71 SW12      30.01S
MIAMI          FAIR      80  73  79 SW9       30.01R
WEST KENDALL   FAIR      82  72  71 SW8       30.01R
HOMESTEAD      FAIR      81  72  74 SW8       30.00S

STATION/POSITION SKY/WX   TEMP    WIND        PRES    WAVE   SWELL
                          AIR SEA DIR/SP/G            HT/PER HT/PER
                          (F)     (DEG/KT/KT) (MB)    (FT/S) (FT/S)
PORT EVERGLADES            81     220/  3/  6 1016.0
VIRGINIA KEY                  80  190/  8/  9 1015.6R
LAKE WORTH                 78 78  250/  6/ 11 1016.7R
FOWEY ROCKS                80 78  200/ 10/ 11 1016.8R

$$





USA.gov is the U.S. government's official web portal to all federal, state and local government web resources and services.